Location: Laterina
(43.5167°N, 11.7167°E)
Time: 17:04:15
(UTC+00:00)

Cosmos 1072 Rocket - Pass Details

Date: 24 September 2020
Orbit: 949 x 1008 km, 82.9° (Epoch: 20 October)

Event Time Altitude Azimuth Distance (km) Brightness Sun altitude
Rises 17:53:37 0° 183° (S) 3,656 7.5 -9.4°
Reaches altitude 10° 17:56:06 10° 182° (S) 2,721 6.8 -9.8°
Maximum altitude 18:02:21 82° 96° (E) 1,004 4.5 -11.0°
Drops below altitude 10° 18:08:44 10° 10° (N) 2,778 6.9 -12.1°
Sets 18:11:18 0° 9° (N) 3,737 7.6 -12.6°
